Beckley, WV

9:52 AM EDT on September 23, 2019 (GMT -0400)
Raleigh County Memorial

Weather History for KBKW - July, 2019

Change the Weather History Date:

Saturday, July 27, 2019

  Actual Average Record
Temperature  
Mean Temperature 71 °F 70 °F  
Max Temperature 83 °F 80 °F 95 °F (1896)
Min Temperature 59 °F 61 °F 42 °F (1962)
Degree Days  
Heating Degree Days 0 0  
Month to date heating degree days 3 0  
Since 1 June heating degree days 36 39  
Since 1 July heating degree days 3 0  
Cooling Degree Days 6 6  
Month to date cooling degree days 244 162  
Year to date cooling degree days 470 314  
Since 1 June cooling degree days 350 273  
Growing Degree Days 21 (Base 50)    
Moisture  
Dew Point 56 °F    
Average Humidity 60    
Maximum Humidity 84    
Minimum Humidity 40    
Precipitation  
Precipitation 0.00 in 0.17 in 2.18 in (1992)
Month to date precipitation 5.02 4.35  
Year to date precipitation 27.91 25.51  
Sea Level Pressure  
Sea Level Pressure 30.25 in    
Wind  
Wind Speed 3 mph ()    
Max Wind Speed 10 mph    
Max Gust Speed 14 mph    
Visibility 10.0 miles    
Events      
T = Trace of Precipitation, MM = Missing Value Source: Averaged Metar Reports

Daily Weather History Graph

Daily Weather History Graph

Search for Another Location

Airport or City:

Astronomy

Jul. 27, 2019 Rise Set
Actual Time 6:23 AM EDT 8:37 PM EDT
Civil Twilight 5:54 AM EDT 9:07 PM EDT
Nautical Twilight 5:17 AM EDT 9:43 PM EDT
Astronomical Twilight 4:38 AM EDT 10:22 PM EDT
Moon 2:07 AM EDT (7/27) 4:27 PM EDT (7/27)
Length of Visible Light 15h 13m
Length of Day
14h 14m
Waning Crescent, 24% of the Moon is Illuminated
Jul 27
Waning Crescent
Jul 31
New
Aug 7
First Quarter
Aug 15
Full
Aug 23
Last Quarter

Hourly Weather History & Observations

Time (EDT) Temp. Heat Index Dew Point Humidity Pressure Visibility Wind Dir Wind Speed Gust Speed Precip Events Conditions
12:51 AM 64.9 °F - 54.0 °F 68% 30.27 in 10.0 mi SSE 3.5 mph - N/A   Mostly Cloudy
1:51 AM 64.0 °F - 54.0 °F 70% 30.26 in 10.0 mi SE 5.8 mph - N/A   Clear
2:51 AM 64.0 °F - 54.0 °F 70% 30.26 in 10.0 mi SE 6.9 mph - N/A   Clear
3:51 AM 63.0 °F - 54.0 °F 72% 30.25 in 10.0 mi Calm Calm - N/A   Clear
4:51 AM 61.0 °F - 54.0 °F 78% 30.26 in 10.0 mi Calm Calm - N/A   Clear
5:51 AM 60.1 °F - 54.0 °F 80% 30.28 in 10.0 mi Calm Calm - N/A   Clear
6:51 AM 61.0 °F - 55.0 °F 81% 30.30 in 10.0 mi Calm Calm - N/A   Clear
7:51 AM 66.9 °F - 57.0 °F 70% 30.30 in 10.0 mi Calm Calm - N/A   Clear
8:51 AM 70.0 °F - 57.0 °F 63% 30.30 in 10.0 mi South 5.8 mph - N/A   Clear
9:51 AM 73.0 °F - 57.9 °F 59% 30.30 in 10.0 mi West 5.8 mph - N/A   Clear
10:51 AM 75.9 °F - 59.0 °F 56% 30.30 in 10.0 mi WSW 5.8 mph - N/A   Clear
11:51 AM 79.0 °F - 59.0 °F 50% 30.28 in 10.0 mi Variable 5.8 mph - N/A   Partly Cloudy
12:51 PM 77.0 °F - 57.0 °F 50% 30.28 in 10.0 mi Variable 3.5 mph - N/A   Mostly Cloudy
1:51 PM 79.0 °F - 57.9 °F 48% 30.25 in 10.0 mi Variable 4.6 mph - N/A   Partly Cloudy
2:51 PM 81.0 °F 80.7 °F 55.0 °F 41% 30.23 in 10.0 mi West 10.4 mph - N/A   Partly Cloudy
3:51 PM 82.0 °F 81.6 °F 55.9 °F 41% 30.22 in 10.0 mi North 5.8 mph - N/A   Scattered Clouds
4:51 PM 80.1 °F 80.2 °F 55.9 °F 43% 30.22 in 10.0 mi NE 6.9 mph - N/A   Mostly Cloudy
5:51 PM 81.0 °F 80.8 °F 55.9 °F 42% 30.20 in 10.0 mi NE 5.8 mph - N/A   Mostly Cloudy
6:51 PM 81.0 °F 80.8 °F 55.9 °F 42% 30.20 in 10.0 mi WNW 5.8 mph - N/A   Scattered Clouds
7:51 PM 78.1 °F - 57.0 °F 48% 30.20 in 10.0 mi NNW 4.6 mph - N/A   Clear
8:51 PM 71.1 °F - 60.1 °F 68% 30.22 in 10.0 mi Calm Calm - N/A   Clear
9:51 PM 69.1 °F - 57.9 °F 68% 30.23 in 10.0 mi Calm Calm - N/A   Clear
10:51 PM 68.0 °F - 57.9 °F 70% 30.23 in 10.0 mi SSE 3.5 mph - N/A   Clear